DW6352 Weather Reports


Display with metric or nautical units.
time (UTC)temp
F
wind
direction
speed
MPH
gust
MPH
rain 1hr
in
rain 24hr
in
rain mn
in
humidity
%
barometer
mb
20260507184530 53 315 7.0 15.0 0.00 0.00 0.00 33 1010.5
20260507183036 52 222 9.0 17.0 0.00 0.00 0.00 31 1010.8
20260507181526 52 282 7.0 18.0 0.00 0.00 0.00 34 1011.0
20260507180035 51 271 6.0 12.0 0.00 0.00 0.00 34 1011.1
20260507174528 51 297 5.0 15.0 0.00 0.00 0.00 37 1011.3
20260507173019 50 333 7.0 14.0 0.00 0.00 0.00 35 1011.6
20260507171517 50 328 6.0 16.0 0.00 0.00 0.00 34 1011.7
20260507170018 50 314 4.0 16.0 0.00 0.00 0.00 34 1011.7
20260507164514 49 165 9.0 16.0 0.00 0.00 0.00 33 1011.9
20260507163011 50 262 7.0 12.0 0.00 0.00 0.00 38 1012.0
20260507161508 49 317 1.0 13.0 0.00 0.00 0.00 36 1012.2
20260507160005 48 191 5.0 11.0 0.00 0.00 0.00 39 1012.3
20260507154502 48 178 0.0 9.0 0.00 0.00 0.00 41 1012.3
20260507153059 47 259 4.0 11.0 0.00 0.00 0.00 39 1012.4
20260507151556 47 42 3.0 9.0 0.00 0.00 0.00 42 1012.3
20260507150052 46 304 1.0 9.0 0.00 0.00 0.00 44 1012.4
20260507144547 46 284 2.0 8.0 0.00 0.00 0.00 43 1012.5
20260507143046 45 313 3.0 10.0 0.00 0.00 0.00 45 1012.7
20260507141540 44 282 2.0 7.0 0.00 0.00 0.00 45 1012.7
20260507140034 44 296 3.0 8.0 0.00 0.00 0.00 48 1012.8
20260507134539 43 241 2.0 8.0 0.00 0.00 0.00 51 1012.9
20260507133027 42 271 3.0 7.0 0.00 0.00 0.00 54 1012.9
20260507131531 41 306 2.0 11.0 0.00 0.00 0.00 57 1012.9
20260507130019 40 264 3.0 6.0 0.00 0.00 0.00 60 1012.9
20260507124515 39 215 3.0 7.0 0.00 0.00 0.00 63 1013.0
20260507123018 38 5 1.0 4.0 0.00 0.00 0.00 67 1013.0
20260507121506 37 174 2.0 4.0 0.00 0.00 0.00 69 1013.0
20260507120006 36 225 1.0 3.0 0.00 0.00 0.00 71 1013.0
20260507114503 35 276 1.0 3.0 0.00 0.00 0.00 70 1013.0
20260507113100 35 276 1.0 4.0 0.00 0.00 0.00 70 1012.9
20260507111555 34 269 1.0 4.0 0.00 0.00 0.00 71 1012.9
20260507110107 34 273 1.0 4.0 0.00 0.00 0.00 71 1012.9
20260507104554 34 221 2.0 4.0 0.00 0.00 0.00 72 1013.0
20260507103056 34 221 1.0 4.0 0.00 0.00 0.00 70 1013.1
20260507101551 34 221 2.0 3.0 0.00 0.00 0.00 69 1013.1
20260507100049 34 221 1.0 3.0 0.00 0.00 0.00 68 1013.1
20260507094548 35 221 1.0 3.0 0.00 0.00 0.00 67 1013.1
20260507093052 35 221 1.0 3.0 0.00 0.00 0.00 66 1013.1
20260507091607 36 221 2.0 4.0 0.00 0.00 0.00 66 1013.0
20260507090047 36 236 2.0 4.0 0.00 0.00 0.00 67 1013.1
20260507084543 36 236 1.0 4.0 0.00 0.00 0.00 67 1013.1
20260507083041 36 236 2.0 4.0 0.00 0.00 0.00 67 1013.2
20260507081539 35 236 1.0 4.0 0.00 0.00 0.00 67 1013.1
20260507080038 36 236 1.0 3.0 0.00 0.00 0.00 66 1013.0
20260507074543 36 236 1.0 2.0 0.00 0.00 0.00 64 1012.9
20260507073032 37 236 1.0 3.0 0.00 0.00 0.00 62 1013.0
20260507071528 38 236 1.0 2.0 0.00 0.00 0.00 61 1013.4
20260507070026 39 236 0.0 2.0 0.00 0.00 0.00 59 1013.4
20260507064524 39 236 0.0 3.0 0.00 0.00 0.00 59 1013.4
20260507063025 39 236 1.0 3.0 0.00 0.00 0.00 59 1013.6
20260507061520 39 236 2.0 4.0 0.00 0.00 0.00 59 1013.7
20260507060018 40 240 2.0 4.0 0.00 0.00 0.00 58 1013.9
20260507054517 40 271 1.0 3.0 0.00 0.00 0.00 57 1013.9
20260507053016 40 275 2.0 4.0 0.00 0.00 0.00 56 1014.1
20260507051513 40 281 0.0 4.0 0.00 0.00 0.00 56 1014.1
20260507050011 40 269 1.0 6.0 0.00 0.00 0.00 56 1014.3
20260507044511 40 282 2.0 6.0 0.00 0.00 0.00 55 1014.3
20260507043011 40 268 1.0 4.0 0.00 0.00 0.00 55 1014.4
20260507041512 40 258 1.0 6.0 0.00 0.00 0.00 54 1014.4
20260507040009 41 261 1.0 6.0 0.00 0.00 0.00 54 1014.6
20260507034510 41 269 2.0 6.0 0.00 0.00 0.00 54 1014.7
20260507033009 41 270 1.0 8.0 0.00 0.00 0.00 53 1014.7
20260507031511 41 301 1.0 3.0 0.00 0.00 0.00 53 1014.7
20260507030008 41 269 2.0 6.0 0.00 0.00 0.00 52 1014.8
20260507024507 41 271 3.0 6.0 0.00 0.00 0.00 52 1014.8
20260507023007 42 269 1.0 7.0 0.00 0.00 0.00 51 1014.8
20260507021506 42 263 3.0 6.0 0.00 0.00 0.00 50 1014.8
20260507020006 42 257 1.0 4.0 0.00 0.00 0.00 50 1014.7
20260507014509 42 284 2.0 5.0 0.00 0.00 0.00 49 1014.6
20260507013005 42 297 2.0 7.0 0.00 0.00 0.00 49 1014.5
20260507011505 42 290 2.0 7.0 0.00 0.00 0.00 49 1014.6
20260507010010 42 246 1.0 8.0 0.00 0.00 0.00 49 1014.7
20260507004504 42 303 3.0 8.0 0.00 0.00 0.00 48 1014.7
20260507003008 43 261 4.0 10.0 0.00 0.00 0.00 48 1014.8
20260507001503 43 329 3.0 12.0 0.00 0.00 0.00 48 1014.9
20260507000003 43 257 6.0 11.0 0.00 0.00 0.00 48 1014.9
20260506234502 43 294 5.0 13.0 0.00 0.00 0.00 47 1015.0
20260506233003 43 273 6.0 14.0 0.00 0.00 0.00 47 1015.0
20260506231505 43 280 5.0 12.0 0.00 0.00 0.00 47 1015.0
20260506230001 43 248 4.0 10.0 0.00 0.00 0.00 49 1015.2
20260506224501 43 278 4.0 11.0 0.00 0.00 0.00 48 1015.2
20260506223000 43 255 5.0 13.0 0.00 0.00 0.00 47 1015.2
20260506221608 43 211 6.0 12.0 0.00 0.00 0.00 49 1015.3
20260506220058 43 327 6.0 12.0 0.00 0.00 0.00 49 1015.4
20260506214604 42 306 6.0 13.0 0.00 0.00 0.00 49 1015.5
20260506213057 42 289 6.0 13.0 0.00 0.00 0.00 49 1015.6
20260506211556 42 307 6.0 15.0 0.00 0.00 0.00 50 1015.7
20260506210055 42 290 7.0 13.0 0.00 0.00 0.00 51 1015.7
20260506204559 42 253 9.0 15.0 0.00 0.00 0.00 50 1015.7
20260506203054 42 330 6.0 13.0 0.00 0.00 0.00 50 1015.8
20260506201554 42 237 8.0 14.0 0.00 0.00 0.00 50 1015.8
20260506200052 42 261 5.0 10.0 0.00 0.00 0.00 51 1015.8
20260506194551 41 284 4.0 17.0 0.00 0.00 0.00 51 1015.9
20260506193050 41 261 4.0 11.0 0.00 0.00 0.00 53 1015.9
20260506191549 41 290 5.0 12.0 0.00 0.00 0.00 52 1016.1
20260506190048 41 161 6.0 10.0 0.00 0.00 0.00 52 1016.0